Location: Newark
(40.7066°N, 111.8219°W)
Time: 10:55:08
(UTC+00:00)

Transit 2A Rocket - Pass Details

Date: 29 November 2019
Orbit: 594 x 909 km, 66.7° (Epoch: 12 December)

Event Time Altitude Azimuth Distance (km) Brightness Sun altitude
Rises 02:12:13 0° 199° (SSW) 3,073 8.5 -24.3°
Reaches altitude 10° 02:14:38 10° 196° (SSW) 2,111 7.5 -24.7°
Enters shadow 02:17:55 41° 176° (S) 944 5.4 -25.4°
Maximum altitude 02:19:18 61° 117° (ESE) 728 - -25.6°
Drops below altitude 10° 02:23:41 10° 37° (NE) 1,981 - -26.4°
Sets 02:25:54 0° 34° (NNE) 2,867 - -26.9°
